Find Starlink 38147

NORAD ID: 100306 Int'l Des: 2026-184 Owner: SPXS Country: US Constellation: starlink operational

現在のビュー

3D地球を読み込み中...

About Starlink 38147

Starlink 38147 (NORAD 100306) is a starlink constellation satellite launched Aug 12, 2026 by SPXS of US. with a mass of 575.00 kg.

次回通過

Passes for default location (London). Set your location on the main map for personalized predictions.

高度履歴

Loading altitude history...

軌道要素

1 A0306U 26184F 26261.12857308 .00009865 00000-0 30752-3 0 9999
2 A0306 97.2838 126.2327 0001463 91.0943 269.0467 15.33443239 6996
Epoch: Sep 18, 2026 • Age: 62 hours

現在のステータス

高度 494.0 km
遠地点 / 近地点 N/A
速度 7.62 km/s
衛星直下点 -76.73°S, 17.25°E
打ち上げ日 Aug 12, 2026
運用期間 0.1 years
タイプ internet

技術仕様

分類 Payload
質量 575.00 kg
乾燥質量 530.00 kg
長さ 0.30 m
スパン 29.00 m
形状 ? Box + pan
製造者 SPXS
バスタイプ Starlink V2MO
フェーズステータス In Orbit
所有者/国 SPXS/US

Most Searched